Kayseri, Turkey

10:07 AM +03 on October 22, 2017 (GMT +0300)
Erkilet Air Base

Weather History for LTAU - September, 2012

Change the Weather History Date:

Saturday, September 15, 2012

  Actual Average Record
Temperature  
Mean Temperature 65 °F -  
Max Temperature 85 °F 71 °F 96 °F (2017)
Min Temperature 45 °F 42 °F 33 °F (2004)
Growing Degree Days 15 (Base 50)    
Moisture  
Dew Point 38 °F    
Average Humidity 40    
Maximum Humidity 71    
Minimum Humidity 9    
Precipitation  
Precipitation 0.00 in - - ()
Sea Level Pressure  
Sea Level Pressure 30.04 in    
Wind  
Wind Speed 3 mph ()    
Max Wind Speed 6 mph    
Max Gust Speed -    
Visibility 12.0 miles    
Events      
Averages and records for this station are not official NWS values.
T = Trace of Precipitation, MM = Missing Value Source: Averaged Metar Reports

Daily Weather History Graph

Daily Weather History Graph

Search for Another Location

Airport or City:

Trip Planner

Search our weather history database for the weather conditions in past years. The results will help you decide how hot, cold, wet, or windy it might be!

Date:

Astronomy

Sep. 15, 2012 Rise Set
Actual Time 6:19 AM EEST 6:46 PM EEST
Civil Twilight 5:53 AM EEST 7:12 PM EEST
Nautical Twilight 5:21 AM EEST 7:44 PM EEST
Astronomical Twilight 4:49 AM EEST 8:16 PM EEST
Moon 5:27 AM EEST (9/15) 6:05 PM EEST (9/15)
Length of Visible Light 13h 19m
Length of Day
12h 26m
Waning Crescent, 1% of the Moon is Illuminated
Sep 15
Waning Crescent
Sep 16
New
Sep 22
First Quarter
Sep 30
Full
Oct 8
Last Quarter

Hourly Weather History & Observations

Time (EEST) Temp. Windchill Dew Point Humidity Pressure Visibility Wind Dir Wind Speed Gust Speed Precip Events Conditions
12:20 AM 55.4 °F - 39.2 °F 54% 30.09 in - NE 4.6 mph - N/A   Clear
12:50 AM 55.4 °F - 39.2 °F 54% 30.09 in - NNE 4.6 mph - N/A   Clear
1:20 AM 53.6 °F - 37.4 °F 54% 30.09 in - Variable 2.3 mph - N/A   Clear
1:50 AM 51.8 °F - 39.2 °F 62% 30.09 in - Calm Calm - N/A   Clear
2:20 AM 51.8 °F - 39.2 °F 62% 30.09 in - Calm Calm - N/A   Clear
2:50 AM 51.8 °F - 37.4 °F 58% 30.09 in - North 3.5 mph - N/A   Clear
3:00 AM 52 °F - 37 °F 46%  in 12 mi North 3.5 mph - -  
3:20 AM 50.0 °F - 37.4 °F 62% 30.09 in - NE 3.5 mph - N/A   Clear
3:50 AM 50.0 °F - 37.4 °F 62% 30.06 in - NE 3.5 mph - N/A   Clear
4:20 AM 50.0 °F - 37.4 °F 62% 30.06 in - NNE 4.6 mph - N/A   Clear
4:50 AM 46.4 °F 44.3 °F 37.4 °F 71% 30.06 in - NE 4.6 mph - N/A   Clear
5:20 AM 48.2 °F - 37.4 °F 66% 30.09 in - NE 2.3 mph - N/A   Clear
5:50 AM 48.2 °F - 37.4 °F 66% 30.06 in - NNE 3.5 mph - N/A   Clear
6:20 AM 46.4 °F 45.2 °F 37.4 °F 71% 30.09 in - NNE 3.5 mph - N/A   Clear
6:50 AM 48.2 °F - 37.4 °F 66% 30.09 in - ENE 3.5 mph - N/A   Clear
7:20 AM 51.8 °F - 39.2 °F 62% 30.09 in - NE 1.2 mph - N/A   Clear
7:50 AM 57.2 °F - 39.2 °F 51% 30.09 in - Calm Calm - N/A   Clear
8:20 AM 60.8 °F - 39.2 °F 45% 30.09 in - Variable 1.2 mph - N/A   Clear
8:50 AM 62.6 °F - 39.2 °F 42% 30.09 in - Variable 2.3 mph - N/A   Clear
9:00 AM 63 °F - 39 °F 30%  in 12 mi NE 2.3 mph - -  
9:20 AM 66.2 °F - 39.2 °F 37% 30.09 in - Variable 1.2 mph - N/A   Clear
9:50 AM 69.8 °F - 37.4 °F 31% 30.09 in - Variable 1.2 mph - N/A   Clear
10:20 AM 75.2 °F - 39.2 °F 27% 30.09 in - Calm Calm - N/A   Clear
10:50 AM 75.2 °F - 39.2 °F 27% 30.06 in - Variable 1.2 mph - N/A   Clear
11:20 AM 78.8 °F - 39.2 °F 24% 30.06 in - Calm Calm - N/A   Clear
11:50 AM 80.6 °F - 39.2 °F 23% 30.06 in - Variable 2.3 mph - N/A   Clear
12:20 PM 80.6 °F - 37.4 °F 21% 30.04 in - Variable 2.3 mph - N/A   Clear
12:50 PM 80.6 °F - 37.4 °F 21% 30.04 in - SSW 4.6 mph - N/A   Clear
1:20 PM 80.6 °F - 37.4 °F 21% 30.04 in - WSW 2.3 mph - N/A   Clear
1:50 PM 82.4 °F - 37.4 °F 20% 30.01 in - Variable 3.5 mph - N/A   Clear
2:20 PM 82.4 °F - 37.4 °F 20% 30.01 in - East 4.6 mph - N/A   Clear
2:50 PM 82.4 °F - 35.6 °F 19% 30.01 in - ESE 4.6 mph - N/A   Clear
3:00 PM 83 °F - 35 °F 9%  in 12 mi ESE 4.6 mph - -  
3:20 PM 82.4 °F - 35.6 °F 19% 29.98 in - ENE 5.8 mph - N/A   Clear
3:50 PM 84.2 °F - 35.6 °F 18% 29.98 in - Variable 2.3 mph - N/A   Clear
4:20 PM 84.2 °F - 32.0 °F 15% 29.98 in - NNW 4.6 mph - N/A   Clear
4:50 PM 84.2 °F - 33.8 °F 16% 29.98 in - NNW 3.5 mph - N/A   Clear
5:20 PM 84.2 °F - 33.8 °F 16% 29.98 in - North 4.6 mph - N/A   Clear
5:50 PM 84.2 °F - 33.8 °F 16% 29.98 in - Variable 1.2 mph - N/A   Clear
6:20 PM 80.6 °F - 35.6 °F 20% 29.98 in - NNW 3.5 mph - N/A   Clear
6:50 PM 77.0 °F - 37.4 °F 24% 29.98 in - NW 3.5 mph - N/A   Clear
7:20 PM 68.0 °F - 41.0 °F 37% 29.98 in - Calm Calm - N/A   Clear
7:50 PM 69.8 °F - 41.0 °F 35% 29.98 in - Calm Calm - N/A   Clear
8:20 PM 68.0 °F - 39.2 °F 35% 29.98 in - South 1.2 mph - N/A   Clear
8:50 PM 68.0 °F - 41.0 °F 37% 30.01 in - Calm Calm - N/A   Clear
9:00 PM 67 °F - 41 °F 27%  in 12 mi Calm Calm - -  
9:20 PM 62.6 °F - 42.8 °F 48% 30.01 in - NE 4.6 mph - N/A   Clear
9:50 PM 62.6 °F - 42.8 °F 48% 30.01 in - NE 4.6 mph - N/A   Clear
10:20 PM 59.0 °F - 39.2 °F 48% 30.01 in - Variable 2.3 mph - N/A   Clear
10:50 PM 60.8 °F - 41.0 °F 48% 30.01 in - NE 1.2 mph - N/A   Clear
11:20 PM 59.0 °F - 41.0 °F 51% 30.04 in - Calm Calm - N/A   Clear
11:50 PM 57.2 °F - 41.0 °F 55% 30.04 in - Variable 1.2 mph - N/A   Clear